Home > Weather > Ludwigsfelde > Past weeks

Flag for Germany Past Weather in Ludwigsfelde, Brandenburg, Germany — Yesterday and Last 2 Weeks

Now
61 °F

Partly sunny.


Feels Like: 61 °F
Forecast: 57 / 70 °F
Wind: 16 mph from Northwest

Location: Berlin-Schoenefeld

Current Time: May 24, 2016 at 7:50:31 PM

Latest Report: May 24, 2016 at 7:20 PM


Visibility: N/A

Pressure: 29.86 "Hg

Humidity: 83%

Dew Point: 55 °F

Location of LudwigsfeldeLocation

Past Weather in Ludwigsfelde — Graph

°F

Ludwigsfelde Temperature Yesterday

Maximum temperature yesterday: 77 °F (at 12:20 PM)
Minimum temperature yesterday: 57 °F (at 3:50 AM)
Average temperature yesterday: 69 °F

High & Low Weather Summary for the Past Weeks

 TemperatureHumidityPressure
High82 °F (May 22, 2:20 PM)100% (May 23, 11:20 PM)30.09 "Hg (May 23, 11:20 PM)
Low41 °F (May 15, 6:20 AM)18% (May 13, 8:20 PM)29.47 "Hg (May 13, 4:20 PM)
Average60 °F60%29.84 "Hg
* Reported May 9 6:20 PM — May 24 6:20 PM, Ludwigsfelde, Weather by CustomWeather, © 2016

Note: Actual official high and low records may vary slightly from our data, if they occured in-between our weather recording intervals... More about our weather records

Advertising

Ludwigsfelde Weather History for the Previous 24 Hours

Scroll right to see more
 ConditionsComfort  
Time TempWeatherWind HumidityBarometerVisibility
6:20 PM
Tue, May 24
61 °FPartly sunny.17 mph88%29.83 "HgN/A
5:50 PM61 °FPartly sunny.18 mph88%29.80 "HgN/A
5:20 PM63 °FPartly sunny.17 mph83%29.80 "HgN/A
4:50 PM64 °FPartly sunny.16 mph78%29.80 "HgN/A
4:20 PM66 °FPartly sunny.15 mph73%29.80 "HgN/A
3:50 PM66 °FScattered clouds.14 mph73%29.80 "HgN/A
3:20 PM66 °FPartly sunny.13 mph73%29.80 "HgN/A
2:50 PM64 °FPartly sunny.15 mph78%29.80 "HgN/A
2:20 PM66 °FPartly sunny.13 mph73%29.80 "HgN/A
1:50 PM64 °FPartly sunny.14 mph78%29.80 "HgN/A
1:20 PM63 °FPartly sunny.14 mph83%29.80 "HgN/A
12:50 PM64 °FPartly sunny.14 mph78%29.80 "HgN/A
12:20 PM64 °FPartly sunny.12 mph78%29.80 "HgN/A
11:50 AM63 °FPartly sunny.13 mph83%29.80 "HgN/A
11:20 AM64 °FPartly sunny.14 mph83%29.77 "HgN/A
10:50 AM64 °FPartly sunny.15 mph83%29.77 "HgN/A
10:20 AM64 °FPartly sunny.12 mph83%29.77 "HgN/A
9:50 AM63 °FPartly sunny.10 mph88%29.77 "Hg6 mi
9:20 AM63 °FPartly sunny.9 mph88%29.77 "Hg6 mi
8:50 AM63 °FPartly sunny.9 mph88%29.77 "Hg6 mi
8:20 AM63 °FPartly sunny.8 mph88%29.77 "HgN/A
7:50 AM61 °FPartly sunny.9 mph94%29.74 "HgN/A
7:20 AM61 °FScattered clouds.9 mph94%29.74 "HgN/A
6:50 AM59 °FScattered clouds.6 mph94%29.74 "HgN/A
6:20 AM57 °FPartly sunny.6 mph100%29.74 "HgN/A
5:50 AM55 °FFog.3 mph100%29.74 "Hg5 mi
5:20 AM55 °FFog.2 mph94%29.74 "HgN/A
4:50 AM55 °FCool.2 mph94%29.74 "Hg2 mi
4:20 AM55 °FFog.3 mph100%29.74 "HgN/A
3:50 AM57 °FClear.5 mph94%29.74 "Hg10 mi
3:20 AM57 °FClear.5 mph94%29.74 "Hg10 mi
2:50 AM57 °FClear.6 mph100%29.71 "Hg10 mi
2:20 AM59 °FClear.3 mph94%29.71 "Hg10 mi
1:50 AM59 °FClear.7 mph94%29.74 "Hg10 mi
1:20 AM59 °FClear.7 mph94%29.71 "Hg10 mi
12:50 AM59 °FPassing clouds.9 mph94%29.71 "HgN/A
12:20 AM59 °FThundershowers. Partly cloudy.6 mph94%29.74 "HgN/A
11:50 PM
Mon, May 23
59 °FThunderstorms. Passing clouds.5 mph100%29.74 "HgN/A
11:20 PM57 °FStrong thunderstorms. Partly cloudy.3 mph100%29.77 "Hg3 mi
10:50 PM70 °FThundershowers. Partly cloudy.22 mph64%29.68 "HgN/A
10:20 PM70 °FThundershowers. Partly cloudy.20 mph64%29.65 "HgN/A
9:50 PM72 °FSunny.14 mph65%29.68 "Hg10 mi
9:20 PM72 °FSunny.12 mph65%29.68 "Hg10 mi
8:50 PM72 °FSunny.10 mph65%29.68 "Hg10 mi
8:20 PM73 °FSunny.10 mph61%29.68 "Hg10 mi
7:50 PM73 °FSunny.10 mph61%29.71 "Hg10 mi
7:20 PM73 °FSunny.9 mph57%29.71 "Hg10 mi
Weather by CustomWeather, © 2016

See weather overviewHow to use our weather pages